Metropolis, IL

1:44 PM CDT on April 26, 2017 (GMT -0500)
Metropolis

Weather History for KM30 - February, 2013

Change the Weather History Date:

Friday, February 1, 2013

  Actual Average (KPAH) Record (KPAH)
Temperature  
Mean Temperature 20 °F -  
Max Temperature 27 °F 47 °F 70 °F (1974)
Min Temperature 13 °F 28 °F -11 °F (1951)
Degree Days  
Heating Degree Days 45    
Moisture  
Dew Point 8 °F    
Average Humidity 55    
Maximum Humidity 67    
Minimum Humidity 44    
Precipitation  
Precipitation 0.00 in - - ()
Sea Level Pressure  
Sea Level Pressure 30.42 in    
Wind  
Wind Speed 7 mph (WSW)    
Max Wind Speed 14 mph    
Max Gust Speed 24 mph    
Visibility 9 miles    
Events      
Averages and records for this station are not official NWS values.
T = Trace of Precipitation, MM = Missing Value Source: NWS Daily Summary

Daily Weather History Graph

Daily Weather History Graph

Search for Another Location

Airport or City:

Trip Planner

Search our weather history database for the weather conditions in past years. The results will help you decide how hot, cold, wet, or windy it might be!

Date:

Astronomy

Feb. 01, 2013 Rise Set
Actual Time 6:57 AM CST 5:20 PM CST
Civil Twilight 6:30 AM CST 5:47 PM CST
Nautical Twilight 5:59 AM CST 6:18 PM CST
Astronomical Twilight 5:28 AM CST 6:49 PM CST
Moon 11:17 PM CST (2/1) 9:39 AM CST (2/1)
Length of Visible Light 11h 17m
Length of Day
10h 22m
Waning Gibbous, 70% of the Moon is Illuminated
Feb 1
Waning Gibbous
Feb 3
Last Quarter
Feb 10
New
Feb 17
First Quarter
Feb 25
Full

Hourly Weather History & Observations

Time (CST) Temp. Windchill Dew Point Humidity Pressure Visibility Wind Dir Wind Speed Gust Speed Precip Events Conditions
12:15 AM 20.1 °F 6.9 °F 6.8 °F 56% 30.35 in 10.0 mi NW 13.8 mph 24.2 mph N/A   Clear
12:35 AM 19.4 °F 7.2 °F 7.3 °F 60% 30.36 in 10.0 mi WNW 11.5 mph 18.4 mph N/A   Clear
12:55 AM 19.2 °F 7.0 °F 7.3 °F 60% 30.36 in 10.0 mi NW 11.5 mph 18.4 mph N/A   Clear
1:15 AM 19.0 °F 6.8 °F 7.0 °F 59% 30.37 in 10.0 mi WNW 11.5 mph 19.6 mph N/A   Clear
1:35 AM 18.5 °F 5.5 °F 6.4 °F 59% 30.37 in 7.0 mi NW 12.7 mph 18.4 mph N/A   Clear
1:55 AM 18.3 °F 5.2 °F 5.2 °F 57% 30.38 in 7.0 mi NNW 12.7 mph 17.3 mph N/A   Clear
2:15 AM 17.6 °F 3.7 °F 5.5 °F 59% 30.38 in 7.0 mi NNW 13.8 mph 17.3 mph N/A   Clear
2:35 AM 17.6 °F 5.0 °F 5.4 °F 59% 30.38 in 7.0 mi NW 11.5 mph 16.1 mph N/A   Clear
2:55 AM 17.1 °F 8.7 °F 6.4 °F 63% 30.39 in 10.0 mi NNW 5.8 mph 9.2 mph N/A   Clear
3:15 AM 16.7 °F 7.2 °F 6.1 °F 63% 30.40 in 7.0 mi NNW 6.9 mph - N/A   Clear
3:35 AM 16.2 °F 3.2 °F 4.8 °F 61% 30.40 in 7.0 mi NNW 11.5 mph - N/A   Clear
4:15 AM 14.9 °F 0.9 °F 1.8 °F 56% 30.42 in 10.0 mi NW 12.7 mph - N/A   Clear
4:35 AM 14.7 °F 2.1 °F 2.1 °F 57% 30.42 in 7.0 mi NNW 10.4 mph - N/A   Clear
4:55 AM 14.4 °F 3.3 °F 2.5 °F 59% 30.44 in 7.0 mi NNW 8.1 mph - N/A   Clear
5:15 AM 14.0 °F 3.9 °F 3.0 °F 62% 30.44 in 7.0 mi NW 6.9 mph - N/A   Clear
5:35 AM 13.8 °F 8.0 °F 3.6 °F 64% 30.45 in 10.0 mi NW 3.5 mph - N/A   Clear
6:15 AM 13.6 °F 7.7 °F 3.7 °F 65% 30.46 in 7.0 mi NW 3.5 mph - N/A   Clear
6:35 AM 13.1 °F 7.1 °F 3.0 °F 64% 30.47 in 7.0 mi NW 3.5 mph - N/A   Clear
6:55 AM 13.1 °F - 3.2 °F 65% 30.48 in 7.0 mi Calm Calm - N/A   Clear
7:15 AM 13.1 °F - 3.9 °F 67% 30.49 in 7.0 mi Calm Calm - N/A   Clear
7:35 AM 14.0 °F - 3.9 °F 64% 30.49 in 7.0 mi Calm Calm - N/A   Clear
7:55 AM 14.9 °F - 4.6 °F 64% 30.50 in 7.0 mi Calm Calm - N/A   Clear
8:15 AM 15.4 °F 8.1 °F 3.7 °F 60% 30.51 in 7.0 mi NW 4.6 mph - N/A   Clear
8:35 AM 16.2 °F - 4.3 °F 60% 30.52 in 7.0 mi Calm Calm - N/A   Clear
9:15 AM 16.7 °F 6.2 °F 3.0 °F 55% 30.53 in 10.0 mi WSW 8.1 mph - N/A   Clear
9:35 AM 17.8 °F 12.5 °F 3.4 °F 53% 30.54 in 7.0 mi NW 3.5 mph - N/A   Clear
10:15 AM 18.9 °F 12.1 °F 3.4 °F 51% 30.53 in 7.0 mi WNW 4.6 mph - N/A   Clear
10:35 AM 19.4 °F - 3.7 °F 51% 30.53 in 10.0 mi Calm Calm - N/A   Clear
10:55 AM 19.8 °F 14.7 °F 4.5 °F 52% 30.53 in 10.0 mi NW 3.5 mph - N/A   Clear
11:15 AM 20.7 °F 15.8 °F 5.0 °F 51% 30.53 in 10.0 mi WSW 3.5 mph - N/A   Clear
11:35 AM 21.6 °F 15.3 °F 7.3 °F 54% 30.52 in 10.0 mi SSW 4.6 mph - N/A   Clear
11:55 AM 21.9 °F 15.7 °F 5.9 °F 50% 30.51 in 10.0 mi NW 4.6 mph - N/A   Clear
12:15 PM 23.0 °F 15.8 °F 8.6 °F 54% 30.50 in 10.0 mi SW 5.8 mph - N/A   Clear
12:35 PM 23.2 °F - 6.6 °F 49% 30.49 in 10.0 mi Calm Calm - N/A   Clear
12:55 PM 24.3 °F 19.9 °F 7.3 °F 49% 30.47 in 10.0 mi South 3.5 mph - N/A   Clear
1:15 PM 23.9 °F 19.5 °F 7.2 °F 49% 30.46 in 10.0 mi SSW 3.5 mph - N/A   Clear
1:35 PM 25.7 °F 21.5 °F 8.2 °F 48% 30.45 in 10.0 mi WSW 3.5 mph - N/A   Clear
1:55 PM 25.5 °F - 7.2 °F 46% 30.44 in 10.0 mi Calm Calm - N/A   Clear
2:15 PM 26.6 °F 19.1 °F 8.6 °F 47% 30.44 in 10.0 mi WSW 6.9 mph - N/A   Clear
2:35 PM 26.6 °F 20.0 °F 7.3 °F 44% 30.43 in 10.0 mi WNW 5.8 mph - N/A   Clear
2:55 PM 27.1 °F 18.9 °F 7.5 °F 44% 30.43 in 10.0 mi SW 8.1 mph - N/A   Clear
3:15 PM 27.5 °F 23.6 °F 7.9 °F 44% 30.42 in 10.0 mi SSW 3.5 mph - N/A   Clear
3:35 PM 27.7 °F 20.4 °F 9.3 °F 46% 30.42 in 10.0 mi WSW 6.9 mph - N/A   Clear
3:55 PM 27.3 °F 23.4 °F 8.8 °F 46% 30.42 in 10.0 mi SW 3.5 mph - N/A   Clear
4:15 PM 27.5 °F 20.2 °F 9.5 °F 47% 30.42 in 10.0 mi WSW 6.9 mph - N/A   Clear
4:35 PM 27.0 °F 20.5 °F 9.9 °F 49% 30.42 in 10.0 mi SW 5.8 mph - N/A   Clear
4:55 PM 26.2 °F 19.6 °F 9.5 °F 49% 30.42 in 10.0 mi SW 5.8 mph - N/A   Clear
5:15 PM 25.7 °F 19.0 °F 10.2 °F 52% 30.39 in 10.0 mi SSW 5.8 mph - N/A   Clear
5:35 PM 25.7 °F 19.0 °F 9.9 °F 51% 30.39 in 10.0 mi South 5.8 mph - N/A   Clear
5:55 PM 25.5 °F 21.3 °F 10.2 °F 52% 30.39 in 10.0 mi SSW 3.5 mph - N/A   Clear
6:15 PM 25.7 °F 21.5 °F 9.7 °F 51% 30.39 in 10.0 mi SW 3.5 mph - N/A   Clear
6:35 PM 25.7 °F 21.5 °F 10.8 °F 53% 30.37 in 10.0 mi South 3.5 mph - N/A   Clear
6:55 PM 25.7 °F 20.1 °F 11.3 °F 55% 30.37 in 10.0 mi South 4.6 mph - N/A   Clear
7:15 PM 26.1 °F 21.9 °F 12.0 °F 55% 30.38 in 10.0 mi South 3.5 mph - N/A   Scattered Clouds
7:35 PM 26.2 °F 20.7 °F 12.6 °F 56% 30.38 in 10.0 mi South 4.6 mph - N/A   Overcast
7:55 PM 26.2 °F 20.7 °F 12.6 °F 56% 30.37 in 10.0 mi South 4.6 mph - N/A   Overcast
8:15 PM 26.4 °F 20.9 °F 12.6 °F 56% 30.37 in 10.0 mi South 4.6 mph - N/A   Overcast
8:35 PM 26.2 °F 20.7 °F 12.4 °F 56% 30.37 in 10.0 mi South 4.6 mph - N/A   Overcast
8:55 PM 26.4 °F 20.9 °F 12.9 °F 57% 30.36 in 10.0 mi South 4.6 mph - N/A   Overcast
9:15 PM 26.6 °F 22.6 °F 13.3 °F 57% 30.35 in 10.0 mi SSE 3.5 mph - N/A   Overcast
9:35 PM 26.6 °F 21.2 °F 13.6 °F 58% 30.34 in 10.0 mi South 4.6 mph - N/A   Overcast
9:55 PM 27.0 °F 21.6 °F 14.0 °F 58% 30.34 in 10.0 mi South 4.6 mph - N/A   Overcast
10:15 PM 27.0 °F 21.6 °F 14.0 °F 58% 30.33 in 10.0 mi South 4.6 mph - N/A   Overcast
10:35 PM 27.0 °F 20.5 °F 14.0 °F 58% 30.34 in 10.0 mi South 5.8 mph - N/A   Mostly Cloudy
10:55 PM 26.6 °F 20.0 °F 14.4 °F 60% 30.33 in 10.0 mi South 5.8 mph - N/A   Scattered Clouds
11:15 PM 26.6 °F 21.2 °F 14.5 °F 60% 30.33 in 10.0 mi South 4.6 mph - N/A   Scattered Clouds
11:35 PM 26.6 °F 22.6 °F 14.5 °F 60% 30.32 in 10.0 mi SSE 3.5 mph - N/A   Scattered Clouds
11:55 PM 27.1 °F 21.8 °F 14.9 °F 60% 30.31 in 10.0 mi SSE 4.6 mph - N/A   Mostly Cloudy